EW2561 Weather Reports


Display with metric or nautical units.
time (UTC)temp
F
wind
direction
speed
MPH
gust
MPH
rain 1hr
in
rain 24hr
in
rain mn
in
humidity
%
barometer
mb
20260507181531 56 46 0.0 0.0 0.00 0.00 0.00 79 1012.8
20260507181032 56 46 0.0 0.0 0.00 0.00 0.00 78 1012.8
20260507180531 57 46 0.0 1.0 0.00 0.00 0.00 77 1012.8
20260507180004 57 46 0.0 1.0 0.00 0.00 0.00 76 1012.8
20260507175504 58 46 0.0 1.0 0.00 0.00 0.00 76 1012.7
20260507175223 58 46 0.0 1.0 0.00 0.00 0.00 74 1012.7
20260507174432 58 46 0.0 0.0 0.00 0.00 0.00 72 1012.6
20260507173932 58 46 0.0 1.0 0.00 0.00 0.00 70 1012.6
20260507173424 59 46 0.0 2.0 0.00 0.00 0.00 69 1012.6
20260507172920 59 46 0.0 2.0 0.00 0.00 0.00 69 1012.7
20260507172404 59 46 0.0 2.0 0.00 0.00 0.00 65 1012.6
20260507171903 59 359 1.0 2.0 0.00 0.00 0.00 63 1012.6
20260507171402 59 25 1.0 3.0 0.00 0.00 0.00 62 1012.6
20260507170833 59 25 1.0 3.0 0.00 0.00 0.00 62 1012.5
20260507170317 59 1 1.0 2.0 0.00 0.00 0.00 62 1012.5
20260507165804 59 71 1.0 2.0 0.00 0.00 0.00 61 1012.5
20260507165306 59 1 1.0 3.0 0.00 0.00 0.00 61 1012.5
20260507164803 59 58 0.0 3.0 0.00 0.00 0.00 61 1012.5
20260507164231 60 89 0.0 2.0 0.00 0.00 0.00 62 1012.5
20260507163732 60 89 0.0 2.0 0.00 0.00 0.00 61 1012.5
20260507163205 60 4 1.0 3.0 0.00 0.00 0.00 62 1012.5
20260507162703 60 15 1.0 3.0 0.00 0.00 0.00 60 1012.5
20260507162202 60 91 1.0 4.0 0.00 0.00 0.00 59 1012.6
20260507161702 60 117 1.0 4.0 0.00 0.00 0.00 59 1012.6
20260507161204 60 359 1.0 2.0 0.00 0.00 0.00 59 1012.5
20260507160702 60 35 1.0 4.0 0.00 0.00 0.00 59 1012.5
20260507160644 60 1 1.0 4.0 0.00 0.00 0.00 59 1012.6
20260507155921 60 108 1.0 5.0 0.00 0.00 0.00 59 1012.5
20260507155145 60 349 1.0 5.0 0.00 0.00 0.00 58 1012.5
20260507154641 61 4 1.0 3.0 0.00 0.00 0.00 60 1012.5
20260507154136 61 25 1.0 4.0 0.00 0.00 0.00 58 1012.4
20260507154125 61 52 1.0 4.0 0.00 0.00 0.00 56 1012.4
20260507153126 61 56 1.0 4.0 0.00 0.00 0.00 58 1012.4
20260507152603 61 1 1.0 4.0 0.00 0.00 0.00 57 1012.3
20260507152102 61 111 1.0 4.0 0.00 0.00 0.00 56 1012.3
20260507151604 61 65 2.0 3.0 0.00 0.00 0.00 55 1012.3
20260507151033 61 53 1.0 4.0 0.00 0.00 0.00 55 1012.3
20260507150531 61 59 1.0 3.0 0.00 0.00 0.00 57 1012.3
20260507150006 61 12 1.0 3.0 0.00 0.00 0.00 55 1012.3
20260507145727 62 25 1.0 6.0 0.00 0.00 0.00 55 1012.3
20260507144932 62 359 1.0 5.0 0.00 0.00 0.00 57 1012.2
20260507144650 62 3 1.0 4.0 0.00 0.00 0.00 53 1012.2
20260507143932 62 12 1.0 4.0 0.00 0.00 0.00 53 1012.2
20260507143430 62 0 1.0 3.0 0.00 0.00 0.00 53 1012.2
20260507142926 62 4 0.0 3.0 0.00 0.00 0.00 55 1012.2
20260507142651 62 66 0.0 3.0 0.00 0.00 0.00 56 1012.2
20260507141916 62 326 1.0 3.0 0.00 0.00 0.00 56 1012.2
20260507141403 62 31 1.0 3.0 0.00 0.00 0.00 54 1012.3
20260507140904 62 0 1.0 2.0 0.00 0.00 0.00 55 1012.3
20260507140332 62 251 0.0 2.0 0.00 0.00 0.00 62 1012.3
20260507140051 62 127 1.0 4.0 0.00 0.00 0.00 56 1012.4
20260507135531 63 259 1.0 4.0 0.00 0.00 0.00 54 1012.4
20260507135027 63 345 2.0 5.0 0.00 0.00 0.00 51 1012.4
20260507134309 63 139 2.0 5.0 0.00 0.00 0.00 51 1012.4
20260507133737 63 290 1.0 3.0 0.00 0.00 0.00 54 1012.4
20260507133237 62 262 1.0 5.0 0.00 0.00 0.00 55 1012.5
20260507132710 62 350 2.0 5.0 0.00 0.00 0.00 54 1012.6
20260507132147 62 118 1.0 5.0 0.00 0.00 0.00 55 1012.6
20260507131635 62 27 1.0 4.0 0.00 0.00 0.00 54 1012.6
20260507131132 63 6 2.0 4.0 0.00 0.00 0.00 52 1012.6
20260507130631 63 86 2.0 5.0 0.00 0.00 0.00 54 1012.6
20260507130131 64 283 1.0 5.0 0.00 0.00 0.00 55 1012.5
20260507125632 63 250 1.0 3.0 0.00 0.00 0.00 55 1012.5
20260507125104 63 75 1.0 5.0 0.00 0.00 0.00 53 1012.5
20260507124830 62 246 1.0 4.0 0.00 0.00 0.00 55 1012.5
20260507124103 62 41 2.0 6.0 0.00 0.00 0.00 55 1012.5
20260507123531 62 283 2.0 5.0 0.00 0.01 0.00 54 1012.5
20260507123252 63 19 2.0 6.0 0.00 0.01 0.00 52 1012.4
20260507122526 63 55 1.0 5.0 0.00 0.01 0.00 55 1012.4
20260507122504 62 133 1.0 3.0 0.00 0.01 0.00 54 1012.5
20260507121518 62 150 1.0 4.0 0.00 0.01 0.00 50 1012.5
20260507121013 61 1 1.0 4.0 0.00 0.01 0.00 51 1012.5
20260507120949 61 20 2.0 5.0 0.00 0.01 0.00 54 1012.5
20260507120005 61 316 2.0 5.0 0.00 0.02 0.00 57 1012.5
20260507115502 61 27 2.0 6.0 0.00 0.02 0.00 60 1012.6
20260507115002 60 33 2.0 6.0 0.00 0.02 0.00 62 1012.6
20260507114731 60 46 2.0 5.0 0.00 0.02 0.00 64 1012.6
20260507114002 60 86 2.0 5.0 0.00 0.02 0.00 62 1012.6
20260507113503 60 98 2.0 5.0 0.00 0.02 0.00 60 1012.6
20260507113155 60 45 1.0 5.0 0.00 0.02 0.00 65 1012.7
20260507112431 60 1 1.0 5.0 0.00 0.02 0.00 66 1012.6
20260507111924 59 89 2.0 5.0 0.00 0.02 0.00 62 1012.6
20260507111424 59 97 2.0 5.0 0.00 0.02 0.00 60 1012.6
20260507110903 59 101 2.0 5.0 0.00 0.03 0.00 64 1012.7
20260507110411 59 40 2.0 4.0 0.00 0.03 0.00 66 1012.7
20260507105833 59 115 1.0 5.0 0.00 0.03 0.00 66 1012.6
20260507105332 58 133 1.0 5.0 0.00 0.03 0.00 69 1012.7
20260507104826 58 113 2.0 4.0 0.00 0.04 0.00 71 1012.6
20260507104807 57 68 2.0 6.0 0.00 0.04 0.00 70 1012.7
20260507103823 58 1 2.0 6.0 0.00 0.04 0.00 70 1012.8
20260507103323 58 359 2.0 4.0 0.00 0.05 0.00 71 1012.7
20260507102814 58 300 1.0 4.0 0.00 0.05 0.00 75 1012.7
20260507102755 58 25 1.0 4.0 0.00 0.05 0.00 76 1012.7
20260507101802 57 125 2.0 5.0 0.00 0.05 0.00 73 1012.7
20260507101307 57 78 1.0 5.0 0.00 0.06 0.00 75 1012.7
20260507100737 57 65 1.0 4.0 0.00 0.06 0.00 77 1012.7
20260507100236 56 270 1.0 5.0 0.00 0.06 0.00 79 1012.6
20260507095734 56 286 1.0 5.0 0.00 0.06 0.00 78 1012.7
20260507095216 55 151 1.0 4.0 0.00 0.06 0.00 79 1012.6
20260507094708 55 336 1.0 4.0 0.00 0.06 0.00 77 1012.6
20260507094207 55 178 1.0 3.0 0.00 0.06 0.00 78 1012.6
20260507093632 55 12 1.0 4.0 0.00 0.07 0.00 81 1012.6
20260507093357 55 162 1.0 4.0 0.00 0.07 0.00 80 1012.6
20260507092631 54 57 1.0 5.0 0.00 0.08 0.00 82 1012.6
20260507092104 54 20 1.0 5.0 0.00 0.09 0.00 82 1012.6
20260507091603 53 103 1.0 4.0 0.00 0.09 0.00 83 1012.5
20260507091032 53 255 1.0 4.0 0.00 0.09 0.00 85 1012.6
20260507090532 53 38 1.0 4.0 0.00 0.09 0.00 84 1012.5
20260507090006 53 257 1.0 4.0 0.00 0.09 0.00 84 1012.5
20260507085503 53 278 1.0 4.0 0.00 0.09 0.00 85 1012.5
20260507085002 52 31 2.0 4.0 0.00 0.09 0.00 85 1012.4
20260507084727 52 359 1.0 4.0 0.00 0.10 0.00 84 1012.4
20260507084010 52 273 1.0 3.0 0.00 0.10 0.00 85 1012.4
20260507083433 52 34 1.0 4.0 0.00 0.10 0.00 86 1012.3
20260507082931 52 1 1.0 3.0 0.00 0.11 0.00 86 1012.3
20260507082703 52 302 2.0 5.0 0.00 0.11 0.00 86 1012.3
20260507081931 52 334 1.0 5.0 0.00 0.11 0.00 86 1012.3
20260507081402 51 40 1.0 3.0 0.00 0.12 0.00 87 1012.3
20260507080903 51 300 0.0 2.0 0.00 0.12 0.00 87 1012.3
20260507080402 51 359 1.0 3.0 0.00 0.12 0.00 88 1012.2
20260507075907 51 289 2.0 5.0 0.00 0.12 0.00 87 1012.2
20260507075404 51 20 1.0 5.0 0.00 0.12 0.00 87 1012.1
20260507074904 51 11 0.0 3.0 0.00 0.13 0.00 88 1012.1
20260507074402 51 49 1.0 3.0 0.00 0.13 0.00 89 1011.9
20260507073831 51 314 1.0 3.0 0.00 0.13 0.00 90 1012.0
20260507073323 51 265 1.0 4.0 0.00 0.13 0.00 90 1012.0
20260507072802 50 22 1.0 4.0 0.00 0.13 0.00 90 1011.9
20260507072532 50 326 1.0 3.0 0.00 0.13 0.00 90 1011.8
20260507072025 50 283 1.0 3.0 0.00 0.13 0.00 90 1011.8
20260507071302 50 14 1.0 3.0 0.00 0.14 0.00 90 1011.8
20260507070746 50 1 1.0 3.0 0.00 0.14 0.00 91 1011.8
20260507070450 50 1 1.0 3.0 0.00 0.15 0.00 91 1011.7
20260507065732 50 1 1.0 3.0 0.00 0.15 0.00 91 1011.6
20260507065231 49 9 1.0 3.0 0.00 0.16 0.00 92 1011.6
20260507064731 49 33 1.0 3.0 0.00 0.16 0.00 92 1011.6
20260507064227 49 314 1.0 4.0 0.00 0.16 0.00 92 1011.6
20260507063724 49 7 1.0 4.0 0.00 0.17 0.00 92 1011.6
20260507063205 49 4 1.0 3.0 0.00 0.17 0.00 92 1011.5
20260507062705 49 1 1.0 4.0 0.00 0.17 0.00 93 1011.6
20260507062141 49 298 0.0 2.0 0.00 0.17 0.00 94 1011.5
20260507061640 49 298 1.0 2.0 0.00 0.18 0.00 94 1011.5
20260507061138 49 304 1.0 3.0 0.00 0.18 0.00 94 1011.4
20260507060632 48 34 1.0 3.0 0.00 0.18 0.00 94 1011.3
20260507060356 48 8 1.0 3.0 0.00 0.18 0.00 95 1011.3
20260507055603 48 31 0.0 2.0 0.00 0.19 0.00 95 1011.3
20260507055102 48 31 0.0 2.0 0.00 0.19 0.00 96 1011.2
20260507054604 48 359 0.0 2.0 0.00 0.19 0.00 96 1011.2
20260507054033 48 359 0.0 2.0 0.00 0.20 0.00 96 1011.2
20260507053528 48 6 0.0 1.0 0.00 0.20 0.00 96 1011.1
20260507053026 47 1 0.0 3.0 0.00 0.20 0.00 96 1011.1
20260507052533 47 357 0.0 2.0 0.00 0.20 0.00 96 1011.1
20260507052022 47 324 0.0 1.0 0.00 0.20 0.00 96 1011.1
20260507051739 47 324 0.0 2.0 0.00 0.21 0.00 96 1011.0
20260507051003 47 326 0.0 2.0 0.00 0.21 0.00 97 1010.9
20260507050722 47 8 0.0 0.0 0.00 0.21 0.00 97 1010.8
20260507050151 47 8 0.0 2.0 0.00 0.22 0.00 97 1010.8
20260507045433 47 8 0.0 2.0 0.00 0.22 0.00 97 1010.7
20260507044932 47 4 0.0 2.0 0.00 0.22 0.00 97 1010.6
20260507044428 47 4 0.0 0.0 0.00 0.23 0.00 97 1010.5
20260507043928 47 4 0.0 2.0 0.00 0.23 0.00 97 1010.5
20260507043650 47 328 0.0 1.0 0.00 0.23 0.00 97 1010.4
20260507042921 47 328 0.0 1.0 0.00 0.24 0.00 97 1010.4
20260507042420 47 328 0.0 1.0 0.00 0.24 0.00 97 1010.3
20260507041917 47 359 0.0 1.0 0.00 0.24 0.00 97 1010.3
20260507041402 47 359 0.0 1.0 0.00 0.24 0.00 97 1010.3
20260507040902 47 359 0.0 1.0 0.00 0.24 0.00 97 1010.2
20260507040404 47 359 0.0 2.0 0.00 0.24 0.00 97 1010.1
20260507035902 47 359 0.0 2.0 0.00 0.24 0.00 97 1010.1
20260507035332 47 0 0.0 3.0 0.00 0.24 0.00 97 1010.1
20260507035042 47 0 0.0 3.0 0.00 0.25 0.00 97 1010.1
20260507034303 47 4 0.0 0.0 0.00 0.25 0.00 97 1010.1
20260507033803 47 4 0.0 1.0 0.00 0.25 0.00 97 1010.1
20260507033231 47 4 0.0 1.0 0.00 0.26 0.00 97 1010.1
20260507032955 47 4 0.0 0.0 0.00 0.26 0.00 97 1010.0
20260507032231 46 4 0.0 0.0 0.00 0.27 0.00 97 1010.0
20260507031703 47 4 0.0 0.0 0.00 0.27 0.00 97 1010.0
20260507031203 46 4 0.0 0.0 0.00 0.28 0.00 97 1010.0
20260507030701 47 4 0.0 0.0 0.00 0.28 0.00 97 1010.0
20260507030148 46 4 0.0 0.0 0.00 0.28 0.00 97 1010.0
20260507025641 46 4 0.0 0.0 0.00 0.29 0.00 97 1009.9
20260507025354 46 4 0.0 0.0 0.00 0.29 0.00 97 1010.0
20260507024630 46 4 0.0 0.0 0.00 0.30 0.00 97 1010.0
20260507024103 46 4 0.0 0.0 0.00 0.31 0.00 97 1009.9
20260507023602 46 4 0.0 0.0 0.00 0.31 0.00 97 1009.8
20260507023031 46 4 0.0 0.0 0.00 0.31 0.00 97 1009.9
20260507022752 46 4 0.0 0.0 0.00 0.32 0.00 97 1009.8
20260507022004 46 4 0.0 0.0 0.00 0.32 0.00 97 1009.7
20260507021504 46 4 0.0 0.0 0.00 0.32 0.00 97 1009.7
20260507021004 46 4 0.0 0.0 0.00 0.33 0.00 97 1009.7
20260507020432 46 4 0.0 0.0 0.00 0.34 0.00 97 1009.7
20260507015926 46 4 0.0 0.0 0.00 0.34 0.00 97 1009.7
20260507015404 46 4 0.0 0.0 0.00 0.35 0.00 97 1009.6
20260507014904 46 4 0.0 0.0 0.00 0.35 0.00 97 1009.6
20260507014332 46 4 0.0 0.0 0.00 0.35 0.00 97 1009.7
20260507013820 46 4 0.0 0.0 0.00 0.35 0.00 97 1009.7
20260507013303 46 4 0.0 0.0 0.00 0.36 0.00 97 1009.7
20260507012802 46 4 0.0 0.0 0.00 0.37 0.00 97 1009.6
20260507012527 46 4 0.0 0.0 0.00 0.37 0.00 97 1009.6
20260507011803 46 4 0.0 0.0 0.00 0.38 0.00 97 1009.6
20260507011302 46 4 0.0 0.0 0.00 0.38 0.00 97 1009.5
20260507010730 46 4 0.0 0.0 0.00 0.38 0.00 97 1009.4
20260507010222 46 4 0.0 0.0 0.00 0.39 0.00 97 1009.4
20260507005703 46 4 0.0 0.0 0.00 0.39 0.00 97 1009.4
20260507005203 46 4 0.0 0.0 0.00 0.39 0.00 97 1009.4
20260507004644 46 4 0.0 0.0 0.00 0.39 0.00 97 1009.4
20260507004139 46 4 0.0 0.0 0.00 0.39 0.00 97 1009.4
20260507003637 46 4 0.0 1.0 0.00 0.40 0.00 97 1009.5
20260507003136 46 4 0.0 1.0 0.00 0.40 0.00 96 1009.5
20260507002855 46 4 0.0 0.0 0.00 0.40 0.00 96 1009.4
20260507002131 46 4 0.0 0.0 0.00 0.41 0.00 96 1009.3
20260507001632 46 4 0.0 0.0 0.00 0.42 0.00 96 1009.4
20260507001138 46 4 0.0 0.0 0.00 0.42 0.00 96 1009.3
20260507000608 46 4 0.0 0.0 0.00 0.43 0.00 96 1009.3
20260507000107 46 4 0.0 0.0 0.00 0.43 0.00 96 1009.3
20260506235536 46 4 0.0 0.0 0.00 0.43 0.00 96 1009.3
20260506235034 46 4 0.0 0.0 0.00 0.43 0.00 96 1009.3
20260506234503 45 4 0.0 0.0 0.00 0.43 0.00 96 1009.4
20260506234003 45 4 0.0 0.0 0.00 0.44 0.00 96 1009.4
20260506233508 46 4 0.0 0.0 0.00 0.44 0.00 96 1009.3
20260506233155 45 4 0.0 0.0 0.00 0.44 0.00 95 1009.3
20260506232428 46 4 0.0 0.0 0.00 0.45 0.00 95 1009.3
20260506231912 46 4 0.0 0.0 0.00 0.45 0.00 95 1009.3
20260506231412 46 4 0.0 0.0 0.00 0.45 0.00 95 1009.2
20260506230840 46 4 0.0 0.0 0.00 0.45 0.00 95 1009.2
20260506230559 46 4 0.0 0.0 0.00 0.46 0.00 95 1009.2
20260506225827 46 4 0.0 0.0 0.00 0.46 0.00 95 1009.1
20260506225528 46 4 0.0 0.0 0.00 0.46 0.00 95 1009.1
20260506224804 46 4 0.0 0.0 0.00 0.47 0.00 95 1009.0
20260506224302 46 4 0.0 0.0 0.00 0.47 0.00 95 1009.0
20260506223802 46 4 0.0 0.0 0.00 0.48 0.00 95 1008.9
20260506223231 47 4 0.0 2.0 0.00 0.48 0.00 95 1008.9
20260506222730 47 4 0.0 2.0 0.00 0.49 0.00 95 1008.8
20260506222218 47 15 1.0 4.0 0.00 0.49 0.00 95 1008.8
20260506221712 47 18 1.0 4.0 0.00 0.50 0.00 95 1008.7
20260506221427 47 39 0.0 1.0 0.00 0.50 0.00 95 1008.7
20260506220631 47 1 0.0 0.0 0.00 0.50 0.00 94 1008.6
20260506220131 47 1 0.0 1.0 0.00 0.50 0.00 94 1008.5
20260506215604 47 23 0.0 1.0 0.00 0.50 0.50 94 1008.5
20260506215103 47 23 0.0 2.0 0.00 0.51 0.50 94 1008.5
20260506214603 48 8 0.0 2.0 0.00 0.51 0.50 94 1008.3
20260506214031 48 32 0.0 2.0 0.00 0.52 0.50 94 1008.4
20260506213748 48 33 1.0 4.0 0.00 0.52 0.50 94 1008.3
20260506213003 48 33 1.0 4.0 0.00 0.53 0.50 94 1008.3
20260506212431 48 20 1.0 3.0 0.00 0.53 0.50 95 1008.3
20260506211932 48 47 1.0 5.0 0.00 0.54 0.50 95 1008.3
20260506211427 48 43 1.0 5.0 0.00 0.54 0.50 95 1008.3
20260506210919 48 1 0.0 2.0 0.00 0.54 0.50 95 1008.3
20260506210403 48 1 0.0 1.0 0.00 0.55 0.50 95 1008.3
20260506205830 48 1 0.0 1.0 0.00 0.55 0.50 95 1008.3
20260506205331 48 1 0.0 2.0 0.00 0.56 0.50 95 1008.3
20260506205058 48 1 0.0 2.0 0.00 0.56 0.50 95 1008.3
20260506204325 48 1 1.0 4.0 0.00 0.57 0.50 95 1008.2
20260506203803 48 347 1.0 4.0 0.00 0.57 0.50 95 1008.2
20260506203302 48 10 1.0 3.0 0.00 0.57 0.50 95 1008.2
20260506202803 48 23 1.0 3.0 0.00 0.58 0.50 95 1008.2
20260506202306 48 3 1.0 4.0 0.00 0.58 0.50 95 1008.1
20260506201802 48 4 1.0 4.0 0.00 0.59 0.50 95 1008.1
20260506201302 48 1 1.0 5.0 0.00 0.59 0.50 95 1008.1
20260506200751 48 359 0.0 5.0 0.00 0.59 0.50 95 1008.1
20260506200233 48 1 1.0 4.0 0.00 0.59 0.50 95 1008.1
20260506195731 48 8 0.0 3.0 0.00 0.60 0.50 95 1008.1
20260506195230 48 0 0.0 0.0 0.00 0.60 0.50 95 1008.0
20260506194729 48 0 0.0 2.0 0.00 0.60 0.50 95 1007.9
20260506194226 48 0 1.0 3.0 0.00 0.60 0.50 95 1007.9
20260506193704 48 3 1.0 3.0 0.00 0.61 0.50 95 1007.9
20260506193203 48 44 1.0 2.0 0.00 0.61 0.50 95 1007.8
20260506192647 48 1 1.0 4.0 0.00 0.61 0.50 95 1007.7
20260506192133 48 2 1.0 4.0 0.00 0.61 0.50 95 1007.7
20260506191632 48 41 1.0 4.0 0.00 0.61 0.50 95 1007.6
20260506191130 48 51 2.0 4.0 0.00 0.61 0.50 94 1007.6
20260506190632 48 7 2.0 3.0 0.00 0.62 0.50 94 1007.6
20260506190326 48 57 1.0 4.0 0.00 0.62 0.50 94 1007.6
20260506190039 48 6 1.0 3.0 0.00 0.62 0.50 94 1007.5
20260506190030 48 359 1.0 4.0 0.00 0.62 0.50 94 1007.5
20260506184538 48 20 1.0 3.0 0.00 0.62 0.50 94 1007.4
20260506184251 48 7 1.0 6.0 0.00 0.62 0.50 94 1007.4
20260506183531 49 1 1.0 6.0 0.00 0.62 0.50 93 1007.4
20260506183027 49 23 1.0 3.0 0.00 0.62 0.50 93 1007.3
20260506182507 49 15 1.0 3.0 0.00 0.62 0.50 93 1007.2
20260506182008 49 22 1.0 4.0 0.00 0.62 0.50 93 1007.1